CYQY

Sydney

Airport
ICAO code
CYQY
Summary
ICAO Region
NAM
ICAO Territory
Location

Sydney, Nova Scotia,

Coordinates
46° 9' 41" N , 60° 2' 52" W
KCC
Metar
Observation
CYQY 070000Z 11009KT 1 1/2SM -DZ BR OVC002 04/04 A3069 RMK ST8 CLD HGTS ESTD SLP398
Station
Sydney, N. S.
Date/Time
2022-12-07 00:00:00
Wind direction
110°
Wind speed
09 kts
Lowest cloud amount
overcast
Temperature
4°C
Dew point
4°C
Humidity
100%
Weather condition
light

Description

International airport serving Sydney, Nova Scotia.

Climatology

Humid Continental climate (Köppen climate classification Dfb) - Variable weather patterns and a large seasonal temperature variance. Summers are often warm and humid with frequent thunderstorms and winters can be very cold with frequent snowfall and persistent snow cover.

Runways

Designator Length Width Surface Rops
1/19 1829 46 ASP Yes/Yes
7/25 2155 61 ASP Yes/Yes

Airport map

Aerial View

SKYbrary Partners:

Safety knowledge contributed by: